North Bend, OR

11:49 PM PDT on August 21, 2017 (GMT -0700)
North Bend Municipal

Weather History for KOTH - November, 2011

Change the Weather History Date:

Friday, November 18, 2011

  Actual Average Record
Temperature  
Mean Temperature 44 °F 48 °F  
Max Temperature 48 °F 54 °F 70 °F (1951)
Min Temperature 39 °F 42 °F 29 °F (1994)
Degree Days  
Heating Degree Days 21 17  
Month to date heating degree days 302 273  
Since 1 July heating degree days 1148 1239  
Cooling Degree Days 0 0  
Month to date cooling degree days 0 0  
Year to date cooling degree days 1 2  
Moisture  
Dew Point 34 °F    
Average Humidity 69    
Maximum Humidity 79    
Minimum Humidity 60    
Precipitation  
Precipitation 0.37 in 0.36 in 6.67 in (1996)
Month to date precipitation 2.56 5.69  
Year to date precipitation 33.47 49.24  
Sea Level Pressure  
Sea Level Pressure 29.82 in    
Wind  
Wind Speed 14 mph (West)    
Max Wind Speed 24 mph    
Max Gust Speed 30 mph    
Visibility 10 miles    
Events      
T = Trace of Precipitation, MM = Missing Value Source: NWS Daily Summary

Daily Weather History Graph

Daily Weather History Graph

Search for Another Location

Airport or City:

Trip Planner

Search our weather history database for the weather conditions in past years. The results will help you decide how hot, cold, wet, or windy it might be!

Date:

Astronomy

Nov. 18, 2011 Rise Set
Actual Time 7:14 AM PST 4:49 PM PST
Civil Twilight 6:43 AM PST 5:20 PM PST
Nautical Twilight 6:08 AM PST 5:55 PM PST
Astronomical Twilight 5:34 AM PST 6:29 PM PST
Moon No Moon Rise 12:50 PM PST (11/18)
Length of Visible Light 10h 37m
Length of Day
9h 35m
Waning Gibbous, 48% of the Moon is Illuminated
Nov 18
Waning Gibbous
Nov 24
New
Dec 2
First Quarter
Dec 10
Full
Dec 17
Last Quarter

Hourly Weather History & Observations

Time (PST) Temp. Windchill Dew Point Humidity Pressure Visibility Wind Dir Wind Speed Gust Speed Precip Events Conditions
12:15 AM 46.4 °F 38.7 °F 37.4 °F 71% 29.85 in 8.0 mi West 20.7 mph 25.3 mph N/A   Overcast
12:35 AM 46.4 °F 39.0 °F 37.4 °F 71% 29.85 in 10.0 mi West 19.6 mph 25.3 mph N/A   Mostly Cloudy
12:55 AM 48.2 °F - 37.4 °F 66% 29.84 in 10.0 mi West 21.9 mph 26.5 mph N/A   Overcast
1:15 AM 46.4 °F 37.9 °F 35.6 °F 66% 29.83 in 7.0 mi West 25.3 mph 33.4 mph 0.01 in   Overcast
1:35 AM 46.4 °F 41.1 °F 37.4 °F 71% 29.83 in 10.0 mi WSW 11.5 mph 18.4 mph 0.01 in   Mostly Cloudy
1:55 AM 46.4 °F 38.7 °F 35.6 °F 66% 29.82 in 10.0 mi West 20.7 mph 29.9 mph 0.01 in   Mostly Cloudy
2:15 AM 44.6 °F 36.9 °F 35.6 °F 71% 29.83 in 10.0 mi WNW 18.4 mph 34.5 mph N/A   Mostly Cloudy
2:35 AM 46.4 °F 39.0 °F 37.4 °F 71% 29.82 in 10.0 mi West 19.6 mph - N/A   Overcast
2:55 AM 46.4 °F 39.0 °F 35.6 °F 66% 29.81 in 10.0 mi West 19.6 mph 27.6 mph N/A   Mostly Cloudy
3:15 AM 46.4 °F 38.1 °F 33.8 °F 62% 29.82 in 10.0 mi WNW 24.2 mph - N/A   Overcast
3:35 AM 46.4 °F 39.5 °F 35.6 °F 66% 29.81 in 10.0 mi WNW 17.3 mph 28.8 mph N/A   Overcast
3:55 AM 46.4 °F 38.7 °F 35.6 °F 66% 29.80 in 10.0 mi West 20.7 mph 24.2 mph N/A   Mostly Cloudy
4:15 AM 46.4 °F 38.7 °F 33.8 °F 62% 29.79 in 10.0 mi West 20.7 mph 24.2 mph N/A   Mostly Cloudy
4:35 AM 44.6 °F 37.4 °F 33.8 °F 66% 29.80 in 10.0 mi West 16.1 mph 23.0 mph 0.01 in   Overcast
4:55 AM 44.6 °F 35.7 °F 35.6 °F 71% 29.80 in 10.0 mi WNW 24.2 mph - 0.02 in   Overcast
5:15 AM 44.6 °F 36.1 °F 35.6 °F 71% 29.79 in 10.0 mi WNW 21.9 mph 29.9 mph 0.01 in   Overcast
5:35 AM 44.6 °F 37.2 °F 33.8 °F 66% 29.80 in 10.0 mi NW 17.3 mph 27.6 mph 0.01 in   Overcast
5:55 AM 42.8 °F 35.8 °F 33.8 °F 70% 29.79 in 10.0 mi NW 13.8 mph - 0.01 in   Overcast
6:15 AM 44.6 °F 37.2 °F 33.8 °F 66% 29.79 in 10.0 mi WNW 17.3 mph 24.2 mph N/A   Overcast
6:35 AM 44.6 °F 38.1 °F 33.8 °F 66% 29.79 in 10.0 mi West 13.8 mph 21.9 mph 0.01 in   Overcast
6:55 AM 42.8 °F 34.5 °F 32.0 °F 66% 29.79 in 10.0 mi WNW 18.4 mph 24.2 mph 0.01 in   Mostly Cloudy
7:15 AM 44.6 °F 37.4 °F 33.8 °F 66% 29.79 in 10.0 mi West 16.1 mph - N/A   Overcast
7:35 AM 41.0 °F 31.6 °F 32.0 °F 70% 29.80 in 5.0 mi NW 20.7 mph 34.5 mph 0.05 in   Overcast
7:55 AM 41.0 °F 37.1 °F 32.0 °F 70% 29.80 in 10.0 mi WNW 5.8 mph - 0.05 in   Mostly Cloudy
8:15 AM 42.8 °F 38.0 °F 33.8 °F 70% 29.80 in 10.0 mi West 8.1 mph - N/A   Overcast
8:35 AM 44.6 °F 37.8 °F 33.8 °F 66% 29.80 in 10.0 mi West 15.0 mph - N/A   Overcast
8:55 AM 44.6 °F 38.4 °F 33.8 °F 66% 29.80 in 10.0 mi West 12.7 mph - N/A   Mostly Cloudy
9:15 AM 44.6 °F 38.4 °F 33.8 °F 66% 29.80 in 10.0 mi West 12.7 mph - N/A   Overcast
9:35 AM 44.6 °F 36.6 °F 33.8 °F 66% 29.79 in 10.0 mi West 19.6 mph - N/A   Mostly Cloudy
9:55 AM 46.4 °F 40.4 °F 33.8 °F 62% 29.79 in 10.0 mi WNW 13.8 mph 24.2 mph N/A   Overcast
10:15 AM 42.8 °F 38.6 °F 33.8 °F 70% 29.80 in 10.0 mi NW 6.9 mph - N/A   Overcast
10:35 AM 42.8 °F 33.5 °F 32.0 °F 66% 29.80 in 5.0 mi WNW 23.0 mph 28.8 mph 0.02 in   Overcast
10:55 AM 44.6 °F 37.8 °F 35.6 °F 71% 29.80 in 10.0 mi West 15.0 mph - 0.03 in   Overcast
11:15 AM 46.4 °F 41.9 °F 35.6 °F 66% 29.80 in 10.0 mi West 9.2 mph - N/A   Mostly Cloudy
11:35 AM 42.8 °F 36.6 °F 32.0 °F 66% 29.82 in 7.0 mi WNW 11.5 mph - 0.02 in   Overcast
11:55 AM 42.8 °F 35.8 °F 32.0 °F 66% 29.81 in 10.0 mi WSW 13.8 mph - 0.03 in   Overcast
12:15 PM 44.6 °F 41.4 °F 35.6 °F 71% 29.81 in 10.0 mi WSW 5.8 mph - N/A   Mostly Cloudy
12:35 PM 46.4 °F 38.1 °F 35.6 °F 66% 29.81 in 10.0 mi WNW 24.2 mph 29.9 mph N/A   Overcast
12:55 PM 42.8 °F 34.5 °F 33.8 °F 70% 29.81 in 10.0 mi NW 18.4 mph - 0.08 in   Overcast
1:15 PM 42.8 °F 36.2 °F 33.8 °F 70% 29.81 in 10.0 mi WNW 12.7 mph - N/A   Mostly Cloudy
1:35 PM 44.6 °F 39.7 °F 33.8 °F 66% 29.82 in 10.0 mi WNW 9.2 mph - N/A   Mostly Cloudy
1:55 PM 42.8 °F 36.2 °F 33.8 °F 70% 29.82 in 10.0 mi WSW 12.7 mph - N/A   Mostly Cloudy
2:15 PM 44.6 °F 39.2 °F 33.8 °F 66% 29.83 in 10.0 mi SW 10.4 mph - N/A   Partly Cloudy
2:35 PM 44.6 °F 39.7 °F 35.6 °F 71% 29.83 in 10.0 mi WSW 9.2 mph - N/A   Clear
2:55 PM 44.6 °F 40.2 °F 32.0 °F 61% 29.84 in 10.0 mi SW 8.1 mph - N/A   Scattered Clouds
3:15 PM 42.8 °F 35.8 °F 33.8 °F 70% 29.85 in 7.0 mi WSW 13.8 mph 21.9 mph 0.02 in   Overcast
3:35 PM 42.8 °F 38.0 °F 35.6 °F 76% 29.85 in 10.0 mi SSW 8.1 mph - 0.02 in   Overcast
3:55 PM 42.8 °F 38.6 °F 33.8 °F 70% 29.86 in 10.0 mi SW 6.9 mph - 0.02 in   Mostly Cloudy
4:15 PM 42.8 °F 38.6 °F 33.8 °F 70% 29.87 in 10.0 mi South 6.9 mph - N/A   Mostly Cloudy
4:35 PM 42.8 °F 38.0 °F 33.8 °F 70% 29.86 in 10.0 mi South 8.1 mph - N/A   Overcast
4:55 PM 41.0 °F 35.8 °F 33.8 °F 76% 29.86 in 10.0 mi South 8.1 mph - 0.01 in   Mostly Cloudy
5:15 PM 41.0 °F 35.8 °F 33.8 °F 76% 29.86 in 10.0 mi South 8.1 mph - N/A   Mostly Cloudy
5:35 PM 41.0 °F 36.4 °F 33.8 °F 76% 29.86 in 10.0 mi South 6.9 mph - N/A   Overcast
5:55 PM 41.0 °F 35.8 °F 33.8 °F 76% 29.87 in 10.0 mi South 8.1 mph - N/A   Overcast
6:15 PM 39.2 °F 34.2 °F 33.8 °F 81% 29.87 in 10.0 mi SSE 6.9 mph - N/A   Overcast
6:35 PM 39.2 °F 33.0 °F 33.8 °F 81% 29.87 in 10.0 mi SSE 9.2 mph - N/A   Overcast
6:55 PM 39.2 °F 33.0 °F 33.8 °F 81% 29.86 in 10.0 mi SSE 9.2 mph - N/A   Overcast
7:15 PM 39.2 °F 32.5 °F 32.0 °F 75% 29.86 in 10.0 mi SSE 10.4 mph - N/A   Mostly Cloudy
7:35 PM 39.2 °F 32.0 °F 32.0 °F 75% 29.87 in 10.0 mi SSE 11.5 mph - N/A   Partly Cloudy
7:55 PM 39.2 °F 31.2 °F 32.0 °F 75% 29.86 in 10.0 mi South 13.8 mph - N/A   Mostly Cloudy
8:15 PM 39.2 °F 31.6 °F 33.8 °F 81% 29.86 in 10.0 mi SSE 12.7 mph - N/A   Overcast
8:35 PM 39.2 °F 31.2 °F 32.0 °F 75% 29.86 in 10.0 mi South 13.8 mph - 0.01 in   Overcast
8:55 PM 39.2 °F 32.5 °F 32.0 °F 75% 29.86 in 10.0 mi SSE 10.4 mph - 0.02 in   Overcast
9:15 PM 39.2 °F 31.6 °F 32.0 °F 75% 29.85 in 10.0 mi SSE 12.7 mph - N/A   Overcast
9:35 PM 39.2 °F 31.6 °F 32.0 °F 75% 29.85 in 10.0 mi SSE 12.7 mph - N/A   Overcast
9:55 PM 39.2 °F 30.5 °F 32.0 °F 75% 29.84 in 10.0 mi SSE 16.1 mph - N/A   Overcast
10:15 PM 39.2 °F 30.5 °F 32.0 °F 75% 29.85 in 8.0 mi South 16.1 mph - 0.06 in   Overcast
10:35 PM 39.2 °F 32.0 °F 33.8 °F 81% 29.85 in 10.0 mi SSE 11.5 mph - 0.08 in   Overcast
10:55 PM 39.2 °F 32.0 °F 32.0 °F 75% 29.84 in 10.0 mi SE 11.5 mph - 0.08 in   Overcast
11:15 PM 39.2 °F 32.0 °F 33.8 °F 81% 29.84 in 10.0 mi SSE 11.5 mph - N/A   Overcast
11:35 PM 41.0 °F 36.4 °F 33.8 °F 76% 29.83 in 10.0 mi South 6.9 mph - N/A   Overcast
11:55 PM 42.8 °F 35.1 °F 35.6 °F 76% 29.83 in 10.0 mi West 16.1 mph 19.6 mph N/A   Overcast